Time,TemperatureF,DewpointF,PressureIn,WindDirection,WindDirectionDegrees,WindSpeedMPH,WindSpeedGustMPH,Humidity,HourlyPrecipIn,Conditions,Clouds,dailyrainin,SoftwareType,DateUTC
2013-04-04 00:00:00,29.7,19.4,30.31,NNW,342,0.0,3.0,65,0.00,,,0.00,WUHU216DAVISVP2,2013-04-04 04:00:00,
2013-04-04 00:05:00,29.6,19.6,30.31,NW,321,0.0,3.0,66,0.00,,,0.00,WUHU216DAVISVP2,2013-04-04 04:05:00,
2013-04-04 00:10:00,29.6,20.0,30.31,NNE,23,2.0,4.0,67,0.00,,,0.00,WUHU216DAVISVP2,2013-04-04 04:10:00,
2013-04-04 00:15:00,29.5,20.0,30.32,NNW,327,0.0,4.0,67,0.00,,,0.00,WUHU216DAVISVP2,2013-04-04 04:15:00,
2013-04-04 00:20:00,29.6,20.4,30.32,NNW,345,0.0,5.0,68,0.00,,,0.00,WUHU216DAVISVP2,2013-04-04 04:20:00,
2013-04-04 00:25:00,29.6,20.4,30.32,NNW,332,2.0,8.0,68,0.00,,,0.00,WUHU216DAVISVP2,2013-04-04 04:25:00,
2013-04-04 00:30:00,29.5,20.3,30.32,North,358,1.0,8.0,68,0.00,,,0.00,WUHU216DAVISVP2,2013-04-04 04:30:00,
2013-04-04 00:35:00,29.5,20.6,30.32,NNE,16,3.0,8.0,69,0.00,,,0.00,WUHU216DAVISVP2,2013-04-04 04:35:00,
2013-04-04 00:40:00,29.4,20.5,30.32,NNW,330,0.0,8.0,69,0.00,,,0.00,WUHU216DAVISVP2,2013-04-04 04:40:00,
2013-04-04 00:45:00,29.3,20.4,30.32,North,355,1.0,4.0,69,0.00,,,0.00,WUHU216DAVISVP2,2013-04-04 04:45:00,
2013-04-04 00:50:00,29.2,20.7,30.32,NNE,12,1.0,3.0,70,0.00,,,0.00,WUHU216DAVISVP2,2013-04-04 04:50:00,
2013-04-04 00:55:00,29.0,20.5,30.32,NNW,346,1.0,3.0,70,0.00,,,0.00,WUHU216DAVISVP2,2013-04-04 04:55:00,
2013-04-04 01:00:00,28.9,20.3,30.32,WNW,302,2.0,5.0,70,0.00,,,0.00,WUHU216DAVISVP2,2013-04-04 05:00:00,
2013-04-04 01:05:00,28.8,20.3,30.32,NNW,335,1.0,5.0,70,0.00,,,0.00,WUHU216DAVISVP2,2013-04-04 05:05:00,
2013-04-04 01:10:00,28.7,20.5,30.31,NW,322,0.0,4.0,71,0.00,,,0.00,WUHU216DAVISVP2,2013-04-04 05:10:00,
2013-04-04 01:15:00,28.6,20.4,30.31,NNW,336,1.0,4.0,71,0.00,,,0.00,WUHU216DAVISVP2,2013-04-04 05:15:00,
2013-04-04 01:20:00,28.5,20.3,30.31,NNW,328,1.0,3.0,71,0.00,,,0.00,WUHU216DAVISVP2,2013-04-04 05:20:00,
2013-04-04 01:25:00,28.4,20.6,30.31,NNW,329,1.0,3.0,72,0.00,,,0.00,WUHU216DAVISVP2,2013-04-04 05:25:00,
2013-04-04 01:30:00,28.3,20.4,30.31,NNW,341,0.0,3.0,72,0.00,,,0.00,WUHU216DAVISVP2,2013-04-04 05:30:00,
2013-04-04 01:35:00,28.2,20.4,30.31,NW,311,1.0,2.0,72,0.00,,,0.00,WUHU216DAVISVP2,2013-04-04 05:35:00,
2013-04-04 01:40:00,28.2,20.7,30.31,NNW,346,0.0,2.0,73,0.00,,,0.00,WUHU216DAVISVP2,2013-04-04 05:40:00,
2013-04-04 01:45:00,28.1,20.6,30.31,NNE,30,2.0,4.0,73,0.00,,,0.00,WUHU216DAVISVP2,2013-04-04 05:45:00,
2013-04-04 01:50:00,28.1,20.6,30.31,NNE,25,1.0,4.0,73,0.00,,,0.00,WUHU216DAVISVP2,2013-04-04 05:50:00,
2013-04-04 01:55:00,28.2,20.3,30.31,NNW,342,1.0,5.0,72,0.00,,,0.00,WUHU216DAVISVP2,2013-04-04 05:55:00,
2013-04-04 02:00:00,28.3,20.5,30.31,NNW,347,3.0,5.0,72,0.00,,,0.00,WUHU216DAVISVP2,2013-04-04 06:00:00,
2013-04-04 02:05:00,28.2,20.4,30.31,NNW,343,1.0,6.0,72,0.00,,,0.00,WUHU216DAVISVP2,2013-04-04 06:05:00,
2013-04-04 02:10:00,28.3,20.4,30.30,North,1,2.0,6.0,72,0.00,,,0.00,WUHU216DAVISVP2,2013-04-04 06:10:00,
2013-04-04 02:15:00,28.2,20.1,30.30,NNE,25,1.0,5.0,71,0.00,,,0.00,WUHU216DAVISVP2,2013-04-04 06:15:00,
2013-04-04 02:20:00,28.1,19.6,30.31,North,350,2.0,5.0,70,0.00,,,0.00,WUHU216DAVISVP2,2013-04-04 06:20:00,
2013-04-04 02:25:00,28.1,19.2,30.30,North,8,1.0,4.0,69,0.00,,,0.00,WUHU216DAVISVP2,2013-04-04 06:25:00,
2013-04-04 02:30:00,28.1,19.3,30.30,North,11,3.0,4.0,69,0.00,,,0.00,WUHU216DAVISVP2,2013-04-04 06:30:00,
2013-04-04 02:35:00,28.1,19.0,30.30,North,11,0.0,4.0,68,0.00,,,0.00,WUHU216DAVISVP2,2013-04-04 06:35:00,
2013-04-04 02:40:00,28.0,18.8,30.30,NNW,330,1.0,5.0,68,0.00,,,0.00,WUHU216DAVISVP2,2013-04-04 06:40:00,
2013-04-04 02:45:00,27.9,18.8,30.29,NNW,346,0.0,5.0,68,0.00,,,0.00,WUHU216DAVISVP2,2013-04-04 06:45:00,
2013-04-04 02:50:00,27.8,18.6,30.29,NNW,333,0.0,5.0,68,0.00,,,0.00,WUHU216DAVISVP2,2013-04-04 06:50:00,
2013-04-04 02:55:00,27.6,18.5,30.29,NNE,23,1.0,3.0,68,0.00,,,0.00,WUHU216DAVISVP2,2013-04-04 06:55:00,
2013-04-04 03:00:00,27.5,18.0,30.29,NW,322,0.0,3.0,67,0.00,,,0.00,WUHU216DAVISVP2,2013-04-04 07:00:00,
2013-04-04 03:05:00,27.4,18.3,30.28,NW,316,0.0,3.0,68,0.00,,,0.00,WUHU216DAVISVP2,2013-04-04 07:05:00,
2013-04-04 03:10:00,27.3,17.8,30.28,NNW,338,0.0,3.0,67,0.00,,,0.00,WUHU216DAVISVP2,2013-04-04 07:10:00,
2013-04-04 03:15:00,27.2,17.7,30.28,North,10,0.0,2.0,67,0.00,,,0.00,WUHU216DAVISVP2,2013-04-04 07:15:00,
2013-04-04 03:20:00,27.0,17.5,30.28,NNW,328,0.0,2.0,67,0.00,,,0.00,WUHU216DAVISVP2,2013-04-04 07:20:00,
2013-04-04 03:25:00,26.9,17.0,30.28,NNW,345,0.0,1.0,66,0.00,,,0.00,WUHU216DAVISVP2,2013-04-04 07:25:00,
2013-04-04 03:30:00,26.9,17.5,30.28,NNW,332,0.0,3.0,67,0.00,,,0.00,WUHU216DAVISVP2,2013-04-04 07:30:00,
2013-04-04 03:35:00,26.8,17.0,30.28,NW,324,0.0,3.0,66,0.00,,,0.00,WUHU216DAVISVP2,2013-04-04 07:35:00,
2013-04-04 03:40:00,26.7,16.9,30.28,NW,319,0.0,3.0,66,0.00,,,0.00,WUHU216DAVISVP2,2013-04-04 07:40:00,
2013-04-04 03:45:00,26.7,16.9,30.27,NNW,334,0.0,3.0,66,0.00,,,0.00,WUHU216DAVISVP2,2013-04-04 07:45:00,
2013-04-04 03:50:00,26.7,16.5,30.27,NNW,344,0.0,3.0,65,0.00,,,0.00,WUHU216DAVISVP2,2013-04-04 07:50:00,
2013-04-04 03:55:00,26.7,16.5,30.27,NNE,15,0.0,3.0,65,0.00,,,0.00,WUHU216DAVISVP2,2013-04-04 07:55:00,
2013-04-04 04:00:00,26.8,15.9,30.27,North,356,1.0,5.0,63,0.00,,,0.00,WUHU216DAVISVP2,2013-04-04 08:00:00,
2013-04-04 04:05:00,26.9,15.7,30.27,NNW,338,1.0,6.0,62,0.00,,,0.00,WUHU216DAVISVP2,2013-04-04 08:05:00,
2013-04-04 04:10:00,26.9,15.3,30.27,North,10,4.0,6.0,61,0.00,,,0.00,WUHU216DAVISVP2,2013-04-04 08:10:00,
2013-04-04 04:15:00,27.0,15.4,30.27,NW,319,2.0,7.0,61,0.00,,,0.00,WUHU216DAVISVP2,2013-04-04 08:15:00,
2013-04-04 04:20:00,27.0,15.3,30.27,NW,315,1.0,7.0,61,0.00,,,0.00,WUHU216DAVISVP2,2013-04-04 08:20:00,
2013-04-04 04:25:00,26.9,15.3,30.27,NW,319,1.0,6.0,61,0.00,,,0.00,WUHU216DAVISVP2,2013-04-04 08:25:00,
2013-04-04 04:30:00,27.0,15.0,30.27,North,349,2.0,6.0,60,0.00,,,0.00,WUHU216DAVISVP2,2013-04-04 08:30:00,
2013-04-04 04:35:00,27.0,14.9,30.27,NW,309,0.0,6.0,60,0.00,,,0.00,WUHU216DAVISVP2,2013-04-04 08:35:00,
2013-04-04 04:40:00,27.0,14.6,30.27,NNE,29,2.0,6.0,59,0.00,,,0.00,WUHU216DAVISVP2,2013-04-04 08:40:00,
2013-04-04 04:46:00,27.1,14.7,30.27,NNE,12,2.0,5.0,59,0.00,,,0.00,WUHU216DAVISVP2,2013-04-04 08:46:00,
2013-04-04 04:51:00,27.0,14.6,30.27,NW,319,1.0,6.0,59,0.00,,,0.00,WUHU216DAVISVP2,2013-04-04 08:51:00,
2013-04-04 04:56:00,27.0,14.6,30.27,NNE,27,3.0,7.0,59,0.00,,,0.00,WUHU216DAVISVP2,2013-04-04 08:56:00,
2013-04-04 05:00:00,26.9,14.9,30.27,North,351,3.0,7.0,60,0.00,,,0.00,WUHU216DAVISVP2,2013-04-04 09:00:00,
2013-04-04 05:06:00,26.9,14.9,30.27,NNE,26,3.0,8.0,60,0.00,,,0.00,WUHU216DAVISVP2,2013-04-04 09:06:00,
2013-04-04 05:10:00,26.9,14.9,30.27,NNE,31,4.0,8.0,60,0.00,,,0.00,WUHU216DAVISVP2,2013-04-04 09:10:00,
2013-04-04 05:16:00,26.8,14.8,30.27,NNW,347,1.0,7.0,60,0.00,,,0.00,WUHU216DAVISVP2,2013-04-04 09:16:00,
2013-04-04 05:20:00,26.7,14.7,30.27,NNE,27,3.0,8.0,60,0.00,,,0.00,WUHU216DAVISVP2,2013-04-04 09:20:00,
2013-04-04 05:25:00,26.7,14.7,30.26,NNE,30,4.0,8.0,60,0.00,,,0.00,WUHU216DAVISVP2,2013-04-04 09:25:00,
2013-04-04 05:30:00,26.7,14.3,30.26,NNW,340,7.0,7.0,59,0.00,,,0.00,WUHU216DAVISVP2,2013-04-04 09:30:00,
2013-04-04 05:35:00,26.7,14.3,30.26,NNE,18,5.0,9.0,59,0.00,,,0.00,WUHU216DAVISVP2,2013-04-04 09:35:00,
2013-04-04 05:40:00,26.7,14.3,30.26,NNW,336,2.0,9.0,59,0.00,,,0.00,WUHU216DAVISVP2,2013-04-04 09:40:00,
2013-04-04 05:45:00,26.8,14.0,30.25,NNE,23,4.0,9.0,58,0.00,,,0.00,WUHU216DAVISVP2,2013-04-04 09:45:00,
2013-04-04 05:51:00,26.8,14.0,30.25,NE,39,2.0,9.0,58,0.00,,,0.00,WUHU216DAVISVP2,2013-04-04 09:51:00,
2013-04-04 05:56:00,26.7,13.9,30.25,NNW,345,2.0,9.0,58,0.00,,,0.00,WUHU216DAVISVP2,2013-04-04 09:56:00,
2013-04-04 06:01:00,26.6,13.8,30.25,NNE,19,7.0,8.0,58,0.00,,,0.00,WUHU216DAVISVP2,2013-04-04 10:01:00,
2013-04-04 06:06:00,26.6,13.8,30.25,North,8,4.0,8.0,58,0.00,,,0.00,WUHU216DAVISVP2,2013-04-04 10:06:00,
2013-04-04 06:11:00,26.5,14.1,30.25,NNW,340,1.0,9.0,59,0.00,,,0.00,WUHU216DAVISVP2,2013-04-04 10:11:00,
2013-04-04 06:15:00,26.4,14.0,30.25,NNW,346,0.0,9.0,59,0.00,,,0.00,WUHU216DAVISVP2,2013-04-04 10:15:00,
2013-04-04 06:20:00,26.3,13.9,30.25,WNW,296,2.0,8.0,59,0.00,,,0.00,WUHU216DAVISVP2,2013-04-04 10:20:00,
2013-04-04 06:25:00,26.3,13.9,30.25,NNE,20,4.0,6.0,59,0.00,,,0.00,WUHU216DAVISVP2,2013-04-04 10:25:00,
2013-04-04 06:31:00,26.3,13.9,30.25,NNE,29,0.0,6.0,59,0.00,,,0.00,WUHU216DAVISVP2,2013-04-04 10:31:00,
2013-04-04 06:36:00,26.3,13.9,30.25,NNE,29,2.0,6.0,59,0.00,,,0.00,WUHU216DAVISVP2,2013-04-04 10:36:00,
2013-04-04 06:41:00,26.2,13.8,30.24,NW,323,1.0,6.0,59,0.00,,,0.00,WUHU216DAVISVP2,2013-04-04 10:41:00,
2013-04-04 06:46:00,26.2,14.2,30.24,NNE,24,4.0,6.0,60,0.00,,,0.00,WUHU216DAVISVP2,2013-04-04 10:46:00,
2013-04-04 06:51:00,26.1,13.8,30.24,NNE,17,2.0,6.0,59,0.00,,,0.00,WUHU216DAVISVP2,2013-04-04 10:51:00,
2013-04-04 06:56:00,26.1,13.8,30.24,NNW,341,2.0,5.0,59,0.00,,,0.00,WUHU216DAVISVP2,2013-04-04 10:56:00,
2013-04-04 07:01:00,26.0,13.7,30.24,NNW,335,1.0,5.0,59,0.00,,,0.00,WUHU216DAVISVP2,2013-04-04 11:01:00,
2013-04-04 07:06:00,25.9,14.0,30.24,NNW,327,0.0,4.0,60,0.00,,,0.00,WUHU216DAVISVP2,2013-04-04 11:06:00,
2013-04-04 07:11:00,25.9,14.0,30.24,NW,316,0.0,3.0,60,0.00,,,0.00,WUHU216DAVISVP2,2013-04-04 11:11:00,
2013-04-04 07:16:00,25.8,13.9,30.24,NNW,330,0.0,4.0,60,0.00,,,0.00,WUHU216DAVISVP2,2013-04-04 11:16:00,
2013-04-04 07:21:00,25.8,14.2,30.23,NNE,20,1.0,4.0,61,0.00,,,0.00,WUHU216DAVISVP2,2013-04-04 11:21:00,
2013-04-04 07:26:00,25.8,13.8,30.23,NW,317,0.0,3.0,60,0.00,,,0.00,WUHU216DAVISVP2,2013-04-04 11:26:00,
2013-04-04 07:31:00,25.9,13.9,30.23,North,356,0.0,3.0,60,0.00,,,0.00,WUHU216DAVISVP2,2013-04-04 11:31:00,
2013-04-04 07:36:00,26.2,14.2,30.23,NW,326,1.0,5.0,60,0.00,,,0.00,WUHU216DAVISVP2,2013-04-04 11:36:00,
2013-04-04 07:41:00,26.5,14.5,30.23,NNW,336,1.0,5.0,60,0.00,,,0.00,WUHU216DAVISVP2,2013-04-04 11:41:00,
2013-04-04 07:46:00,26.7,14.3,30.23,NNW,333,1.0,4.0,59,0.00,,,0.00,WUHU216DAVISVP2,2013-04-04 11:46:00,
2013-04-04 07:51:00,27.0,14.2,30.23,NNW,335,1.0,4.0,58,0.00,,,0.00,WUHU216DAVISVP2,2013-04-04 11:51:00,
2013-04-04 07:56:00,27.3,14.5,30.23,NNE,19,0.0,4.0,58,0.00,,,0.00,WUHU216DAVISVP2,2013-04-04 11:56:00,
2013-04-04 08:01:00,27.7,14.9,30.23,NNW,334,1.0,6.0,58,0.00,,,0.00,WUHU216DAVISVP2,2013-04-04 12:01:00,
2013-04-04 08:06:00,28.1,14.4,30.23,North,356,2.0,6.0,56,0.00,,,0.00,WUHU216DAVISVP2,2013-04-04 12:06:00,
2013-04-04 08:11:00,28.4,14.3,30.23,NNW,338,1.0,6.0,55,0.00,,,0.00,WUHU216DAVISVP2,2013-04-04 12:11:00,
2013-04-04 08:16:00,28.9,15.6,30.23,NNW,327,0.0,6.0,57,0.00,,,0.00,WUHU216DAVISVP2,2013-04-04 12:16:00,
2013-04-04 08:21:00,29.3,14.7,30.23,North,11,2.0,6.0,54,0.00,,,0.00,WUHU216DAVISVP2,2013-04-04 12:21:00,
2013-04-04 08:26:00,29.5,14.9,30.23,North,353,3.0,7.0,54,0.00,,,0.00,WUHU216DAVISVP2,2013-04-04 12:26:00,
2013-04-04 08:31:00,29.9,15.3,30.23,NNW,341,1.0,7.0,54,0.00,,,0.00,WUHU216DAVISVP2,2013-04-04 12:31:00,
2013-04-04 08:36:00,30.2,14.7,30.23,NW,307,1.0,6.0,52,0.00,,,0.00,WUHU216DAVISVP2,2013-04-04 12:36:00,
2013-04-04 08:41:00,30.7,16.0,30.22,NNW,340,1.0,9.0,54,0.00,,,0.00,WUHU216DAVISVP2,2013-04-04 12:41:00,
2013-04-04 08:46:00,31.1,15.5,30.22,NNW,334,2.0,9.0,52,0.00,,,0.00,WUHU216DAVISVP2,2013-04-04 12:46:00,
2013-04-04 08:51:00,31.4,15.3,30.22,NE,46,4.0,8.0,51,0.00,,,0.00,WUHU216DAVISVP2,2013-04-04 12:51:00,
2013-04-04 08:56:00,31.7,15.2,30.22,NNE,32,1.0,6.0,50,0.00,,,0.00,WUHU216DAVISVP2,2013-04-04 12:56:00,
2013-04-04 09:01:00,32.6,16.9,30.22,NNE,17,2.0,6.0,52,0.00,,,0.00,WUHU216DAVISVP2,2013-04-04 13:01:00,
2013-04-04 09:06:00,33.1,15.5,30.21,North,3,1.0,5.0,48,0.00,,,0.00,WUHU216DAVISVP2,2013-04-04 13:06:00,
2013-04-04 09:11:00,33.4,16.7,30.21,NW,317,1.0,5.0,50,0.00,,,0.00,WUHU216DAVISVP2,2013-04-04 13:11:00,
2013-04-04 09:16:00,33.8,16.6,30.21,NE,37,1.0,5.0,49,0.00,,,0.00,WUHU216DAVISVP2,2013-04-04 13:16:00,
2013-04-04 09:21:00,34.3,15.5,30.20,WNW,302,1.0,5.0,46,0.00,,,0.00,WUHU216DAVISVP2,2013-04-04 13:21:00,
2013-04-04 09:26:00,34.6,15.4,30.20,WNW,297,2.0,7.0,45,0.00,,,0.00,WUHU216DAVISVP2,2013-04-04 13:26:00,
2013-04-04 09:31:00,34.7,15.5,30.19,NNW,330,1.0,7.0,45,0.00,,,0.00,WUHU216DAVISVP2,2013-04-04 13:31:00,
2013-04-04 09:36:00,34.9,14.5,30.19,North,358,2.0,9.0,43,0.00,,,0.00,WUHU216DAVISVP2,2013-04-04 13:36:00,
2013-04-04 09:41:00,34.8,14.9,30.19,NNW,341,3.0,9.0,44,0.00,,,0.00,WUHU216DAVISVP2,2013-04-04 13:41:00,
2013-04-04 09:46:00,35.0,15.7,30.19,NW,311,2.0,8.0,45,0.00,,,0.00,WUHU216DAVISVP2,2013-04-04 13:46:00,
2013-04-04 09:51:00,35.3,15.5,30.18,NW,316,1.0,9.0,44,0.00,,,0.00,WUHU216DAVISVP2,2013-04-04 13:51:00,
2013-04-04 09:56:00,35.6,15.8,30.18,NNW,333,1.0,9.0,44,0.00,,,0.00,WUHU216DAVISVP2,2013-04-04 13:56:00,
2013-04-04 10:01:00,35.7,15.2,30.18,NNW,347,4.0,8.0,43,0.00,,,0.00,WUHU216DAVISVP2,2013-04-04 14:01:00,
2013-04-04 10:06:00,36.1,15.6,30.18,NNW,339,2.0,8.0,43,0.00,,,0.00,WUHU216DAVISVP2,2013-04-04 14:06:00,
2013-04-04 10:11:00,36.7,15.7,30.18,ENE,77,4.0,7.0,42,0.00,,,0.00,WUHU216DAVISVP2,2013-04-04 14:11:00,
2013-04-04 10:16:00,37.2,15.6,30.17,NNE,26,6.0,8.0,41,0.00,,,0.00,WUHU216DAVISVP2,2013-04-04 14:16:00,
2013-04-04 10:21:00,37.9,15.5,30.17,NNE,25,1.0,8.0,40,0.00,,,0.00,WUHU216DAVISVP2,2013-04-04 14:21:00,
2013-04-04 10:27:00,38.3,15.9,30.17,NNW,343,2.0,8.0,40,0.00,,,0.00,WUHU216DAVISVP2,2013-04-04 14:27:00,
2013-04-04 10:32:00,38.6,15.7,30.16,NNW,338,3.0,7.0,39,0.00,,,0.00,WUHU216DAVISVP2,2013-04-04 14:32:00,
2013-04-04 10:37:00,39.1,16.6,30.16,NNW,347,5.0,7.0,40,0.00,,,0.00,WUHU216DAVISVP2,2013-04-04 14:37:00,
2013-04-04 10:42:00,39.4,15.7,30.16,NW,309,3.0,9.0,38,0.00,,,0.00,WUHU216DAVISVP2,2013-04-04 14:42:00,
2013-04-04 10:47:00,39.6,15.2,30.16,NNE,26,5.0,9.0,37,0.00,,,0.00,WUHU216DAVISVP2,2013-04-04 14:47:00,
2013-04-04 10:52:00,40.1,15.9,30.16,NW,325,2.0,8.0,37,0.00,,,0.00,WUHU216DAVISVP2,2013-04-04 14:52:00,
2013-04-04 10:57:00,40.7,15.6,30.15,NW,304,0.0,8.0,36,0.00,,,0.00,WUHU216DAVISVP2,2013-04-04 14:57:00,
2013-04-04 11:02:00,40.7,15.1,30.15,NNW,332,2.0,10.0,35,0.00,,,0.00,WUHU216DAVISVP2,2013-04-04 15:02:00,
2013-04-04 11:07:00,41.0,15.2,30.15,NNE,20,7.0,10.0,35,0.00,,,0.00,WUHU216DAVISVP2,2013-04-04 15:07:00,
2013-04-04 11:12:00,41.4,14.9,30.15,NNW,345,4.0,9.0,34,0.00,,,0.00,WUHU216DAVISVP2,2013-04-04 15:12:00,
2013-04-04 11:17:00,42.1,16.4,30.14,NNW,345,1.0,9.0,35,0.00,,,0.00,WUHU216DAVISVP2,2013-04-04 15:17:00,
2013-04-04 11:22:00,42.2,15.1,30.14,NE,47,5.0,7.0,33,0.00,,,0.00,WUHU216DAVISVP2,2013-04-04 15:22:00,
2013-04-04 11:27:00,42.7,14.6,30.14,NW,311,1.0,8.0,32,0.00,,,0.00,WUHU216DAVISVP2,2013-04-04 15:27:00,
2013-04-04 11:32:00,43.5,15.3,30.13,North,8,7.0,8.0,32,0.00,,,0.00,WUHU216DAVISVP2,2013-04-04 15:32:00,
2013-04-04 11:37:00,43.6,15.4,30.13,NNE,26,1.0,8.0,32,0.00,,,0.00,WUHU216DAVISVP2,2013-04-04 15:37:00,
2013-04-04 11:42:00,44.4,17.1,30.13,NE,45,4.0,8.0,33,0.00,,,0.00,WUHU216DAVISVP2,2013-04-04 15:42:00,
2013-04-04 11:47:00,44.2,15.2,30.13,NNW,329,4.0,10.0,31,0.00,,,0.00,WUHU216DAVISVP2,2013-04-04 15:47:00,
2013-04-04 11:52:00,44.3,15.3,30.12,NE,45,7.0,10.0,31,0.00,,,0.00,WUHU216DAVISVP2,2013-04-04 15:52:00,
2013-04-04 11:57:00,44.6,15.6,30.12,NE,41,3.0,10.0,31,0.00,,,0.00,WUHU216DAVISVP2,2013-04-04 15:57:00,
2013-04-04 12:02:00,44.6,15.6,30.12,North,360,5.0,10.0,31,0.00,,,0.00,WUHU216DAVISVP2,2013-04-04 16:02:00,
2013-04-04 12:07:00,45.1,16.7,30.11,NNW,334,6.0,10.0,32,0.00,,,0.00,WUHU216DAVISVP2,2013-04-04 16:07:00,
2013-04-04 12:12:00,45.0,15.9,30.11,East,100,5.0,11.0,31,0.00,,,0.00,WUHU216DAVISVP2,2013-04-04 16:12:00,
2013-04-04 12:17:00,45.3,16.2,30.11,NNE,30,3.0,11.0,31,0.00,,,0.00,WUHU216DAVISVP2,2013-04-04 16:17:00,
2013-04-04 12:22:00,45.4,16.3,30.11,North,355,2.0,10.0,31,0.00,,,0.00,WUHU216DAVISVP2,2013-04-04 16:22:00,
2013-04-04 12:27:00,45.7,16.5,30.11,NNW,348,1.0,10.0,31,0.00,,,0.00,WUHU216DAVISVP2,2013-04-04 16:27:00,
2013-04-04 12:32:00,46.0,16.1,30.10,NE,34,4.0,13.0,30,0.00,,,0.00,WUHU216DAVISVP2,2013-04-04 16:32:00,
2013-04-04 12:37:00,45.6,15.1,30.10,NNW,335,2.0,13.0,29,0.00,,,0.00,WUHU216DAVISVP2,2013-04-04 16:37:00,
2013-04-04 12:42:00,45.9,15.4,30.09,NE,37,3.0,12.0,29,0.00,,,0.00,WUHU216DAVISVP2,2013-04-04 16:42:00,
2013-04-04 12:47:00,46.4,16.6,30.09,NNW,343,3.0,12.0,30,0.00,,,0.00,WUHU216DAVISVP2,2013-04-04 16:47:00,
2013-04-04 12:52:00,46.3,16.3,30.08,NNW,345,5.0,12.0,30,0.00,,,0.00,WUHU216DAVISVP2,2013-04-04 16:52:00,
2013-04-04 12:57:00,46.7,16.1,30.08,NNE,15,9.0,12.0,29,0.00,,,0.00,WUHU216DAVISVP2,2013-04-04 16:57:00,
2013-04-04 13:02:00,46.1,13.8,30.08,NNW,327,2.0,14.0,27,0.00,,,0.00,WUHU216DAVISVP2,2013-04-04 17:02:00,
2013-04-04 13:07:00,46.2,15.5,30.08,NW,322,1.0,14.0,29,0.00,,,0.00,WUHU216DAVISVP2,2013-04-04 17:07:00,
2013-04-04 13:12:00,46.8,15.2,30.07,NE,41,8.0,13.0,28,0.00,,,0.00,WUHU216DAVISVP2,2013-04-04 17:12:00,
2013-04-04 13:17:00,47.5,16.6,30.07,North,349,4.0,13.0,29,0.00,,,0.00,WUHU216DAVISVP2,2013-04-04 17:17:00,
2013-04-04 13:22:00,48.0,15.4,30.07,NNE,26,3.0,12.0,27,0.00,,,0.00,WUHU216DAVISVP2,2013-04-04 17:22:00,
2013-04-04 13:27:00,48.4,15.7,30.06,NNE,15,3.0,11.0,27,0.00,,,0.00,WUHU216DAVISVP2,2013-04-04 17:27:00,
2013-04-04 13:32:00,48.5,16.8,30.06,NNE,30,3.0,11.0,28,0.00,,,0.00,WUHU216DAVISVP2,2013-04-04 17:32:00,
2013-04-04 13:37:00,48.3,14.8,30.05,NNE,32,4.0,13.0,26,0.00,,,0.00,WUHU216DAVISVP2,2013-04-04 17:37:00,
2013-04-04 13:42:00,48.4,14.9,30.05,NNE,22,3.0,13.0,26,0.00,,,0.00,WUHU216DAVISVP2,2013-04-04 17:42:00,
2013-04-04 13:47:00,49.1,16.3,30.05,NNE,32,2.0,12.0,27,0.00,,,0.00,WUHU216DAVISVP2,2013-04-04 17:47:00,
2013-04-04 13:52:00,49.1,14.6,30.04,ENE,63,3.0,12.0,25,0.00,,,0.00,WUHU216DAVISVP2,2013-04-04 17:52:00,
2013-04-04 13:57:00,49.9,15.4,30.04,ENE,67,2.0,8.0,25,0.00,,,0.00,WUHU216DAVISVP2,2013-04-04 17:57:00,
2013-04-04 14:02:00,50.5,14.9,30.04,NE,46,5.0,11.0,24,0.00,,,0.00,WUHU216DAVISVP2,2013-04-04 18:02:00,
2013-04-04 14:07:00,50.3,13.8,30.04,ENE,77,3.0,11.0,23,0.00,,,0.00,WUHU216DAVISVP2,2013-04-04 18:07:00,
2013-04-04 14:12:00,49.9,13.4,30.03,NNE,30,3.0,12.0,23,0.00,,,0.00,WUHU216DAVISVP2,2013-04-04 18:12:00,
2013-04-04 14:17:00,50.0,13.6,30.03,East,89,5.0,12.0,23,0.00,,,0.00,WUHU216DAVISVP2,2013-04-04 18:17:00,
2013-04-04 14:22:00,50.7,15.1,30.02,NNE,19,8.0,12.0,24,0.00,,,0.00,WUHU216DAVISVP2,2013-04-04 18:22:00,
2013-04-04 14:27:00,50.8,14.3,30.02,NNE,29,6.0,13.0,23,0.00,,,0.00,WUHU216DAVISVP2,2013-04-04 18:27:00,
2013-04-04 14:32:00,50.9,15.2,30.02,NE,36,3.0,13.0,24,0.00,,,0.00,WUHU216DAVISVP2,2013-04-04 18:32:00,
2013-04-04 14:37:00,51.7,14.0,30.01,NNE,22,7.0,13.0,22,0.00,,,0.00,WUHU216DAVISVP2,2013-04-04 18:37:00,
2013-04-04 14:42:00,51.5,13.8,30.01,ENE,60,5.0,11.0,22,0.00,,,0.00,WUHU216DAVISVP2,2013-04-04 18:42:00,
2013-04-04 14:47:00,51.8,13.0,30.01,ENE,71,5.0,11.0,21,0.00,,,0.00,WUHU216DAVISVP2,2013-04-04 18:47:00,
2013-04-04 14:52:00,51.4,14.8,30.01,NNE,26,6.0,10.0,23,0.00,,,0.00,WUHU216DAVISVP2,2013-04-04 18:52:00,
2013-04-04 14:57:00,51.6,13.9,30.00,ENE,77,3.0,14.0,22,0.00,,,0.00,WUHU216DAVISVP2,2013-04-04 18:57:00,
2013-04-04 15:02:00,51.8,16.0,30.00,WNW,297,1.0,14.0,24,0.00,,,0.00,WUHU216DAVISVP2,2013-04-04 19:02:00,
2013-04-04 15:07:00,52.2,13.3,30.00,NE,49,6.0,13.0,21,0.00,,,0.00,WUHU216DAVISVP2,2013-04-04 19:07:00,
2013-04-04 15:12:00,52.1,14.3,30.00,NNE,15,6.0,13.0,22,0.00,,,0.00,WUHU216DAVISVP2,2013-04-04 19:12:00,
2013-04-04 15:17:00,51.9,13.1,29.99,NE,51,10.0,12.0,21,0.00,,,0.00,WUHU216DAVISVP2,2013-04-04 19:17:00,
2013-04-04 15:22:00,51.7,14.0,29.99,NE,49,6.0,11.0,22,0.00,,,0.00,WUHU216DAVISVP2,2013-04-04 19:22:00,
2013-04-04 15:27:00,52.0,15.2,29.99,NE,56,5.0,11.0,23,0.00,,,0.00,WUHU216DAVISVP2,2013-04-04 19:27:00,
2013-04-04 15:33:00,52.5,15.6,29.98,ESE,103,6.0,11.0,23,0.00,,,0.00,WUHU216DAVISVP2,2013-04-04 19:33:00,
2013-04-04 15:38:00,52.3,13.4,29.99,East,93,6.0,12.0,21,0.00,,,0.00,WUHU216DAVISVP2,2013-04-04 19:38:00,
2013-04-04 15:43:00,52.0,14.2,29.98,ESE,104,10.0,12.0,22,0.00,,,0.00,WUHU216DAVISVP2,2013-04-04 19:43:00,
2013-04-04 15:48:00,52.1,14.3,29.98,NW,314,4.0,12.0,22,0.00,,,0.00,WUHU216DAVISVP2,2013-04-04 19:48:00,
2013-04-04 15:53:00,53.0,14.0,29.98,NE,34,4.0,11.0,21,0.00,,,0.00,WUHU216DAVISVP2,2013-04-04 19:53:00,
2013-04-04 15:57:00,53.6,14.5,29.97,NW,326,4.0,11.0,21,0.00,,,0.00,WUHU216DAVISVP2,2013-04-04 19:57:00,
2013-04-04 16:03:00,53.4,12.1,29.97,ENE,74,8.0,13.0,19,0.00,,,0.00,WUHU216DAVISVP2,2013-04-04 20:03:00,
2013-04-04 16:08:00,53.2,14.2,29.96,NE,34,3.0,13.0,21,0.00,,,0.00,WUHU216DAVISVP2,2013-04-04 20:08:00,
2013-04-04 16:13:00,53.0,12.9,29.96,East,90,7.0,16.0,20,0.00,,,0.00,WUHU216DAVISVP2,2013-04-04 20:13:00,
2013-04-04 16:18:00,52.8,12.8,29.96,ESE,114,6.0,16.0,20,0.00,,,0.00,WUHU216DAVISVP2,2013-04-04 20:18:00,
2013-04-04 16:23:00,53.1,13.0,29.96,NNE,20,9.0,15.0,20,0.00,,,0.00,WUHU216DAVISVP2,2013-04-04 20:23:00,
2013-04-04 16:28:00,53.2,14.2,29.96,NE,38,3.0,14.0,21,0.00,,,0.00,WUHU216DAVISVP2,2013-04-04 20:28:00,
2013-04-04 16:33:00,53.4,14.4,29.95,East,101,4.0,14.0,21,0.00,,,0.00,WUHU216DAVISVP2,2013-04-04 20:33:00,
2013-04-04 16:38:00,53.6,15.6,29.95,ENE,73,5.0,14.0,22,0.00,,,0.00,WUHU216DAVISVP2,2013-04-04 20:38:00,
2013-04-04 16:43:00,53.7,13.5,29.94,ENE,73,6.0,12.0,20,0.00,,,0.00,WUHU216DAVISVP2,2013-04-04 20:43:00,
2013-04-04 16:48:00,53.5,13.3,29.94,ENE,68,7.0,12.0,20,0.00,,,0.00,WUHU216DAVISVP2,2013-04-04 20:48:00,
2013-04-04 16:53:00,53.7,13.5,29.94,ENE,77,5.0,13.0,20,0.00,,,0.00,WUHU216DAVISVP2,2013-04-04 20:53:00,
2013-04-04 16:58:00,54.2,15.0,29.94,NE,39,3.0,13.0,21,0.00,,,0.00,WUHU216DAVISVP2,2013-04-04 20:58:00,
2013-04-04 17:03:00,54.6,14.2,29.94,NNW,346,1.0,13.0,20,0.00,,,0.00,WUHU216DAVISVP2,2013-04-04 21:03:00,
2013-04-04 17:08:00,54.7,15.4,29.93,East,85,4.0,12.0,21,0.00,,,0.00,WUHU216DAVISVP2,2013-04-04 21:08:00,
2013-04-04 17:13:00,54.4,15.2,29.93,ENE,70,4.0,11.0,21,0.00,,,0.00,WUHU216DAVISVP2,2013-04-04 21:13:00,
2013-04-04 17:18:00,54.5,15.3,29.93,ENE,65,7.0,10.0,21,0.00,,,0.00,WUHU216DAVISVP2,2013-04-04 21:18:00,
2013-04-04 17:23:00,54.3,14.0,29.92,NE,56,2.0,11.0,20,0.00,,,0.00,WUHU216DAVISVP2,2013-04-04 21:23:00,
2013-04-04 17:28:00,54.8,15.5,29.92,East,94,7.0,11.0,21,0.00,,,0.00,WUHU216DAVISVP2,2013-04-04 21:28:00,
2013-04-04 17:33:00,54.5,14.2,29.92,NE,36,4.0,12.0,20,0.00,,,0.00,WUHU216DAVISVP2,2013-04-04 21:33:00,
2013-04-04 17:38:00,54.5,14.2,29.92,ENE,77,4.0,12.0,20,0.00,,,0.00,WUHU216DAVISVP2,2013-04-04 21:38:00,
2013-04-04 17:43:00,54.7,14.3,29.92,ENE,64,2.0,12.0,20,0.00,,,0.00,WUHU216DAVISVP2,2013-04-04 21:43:00,
2013-04-04 17:48:00,54.6,14.2,29.92,ENE,74,8.0,12.0,20,0.00,,,0.00,WUHU216DAVISVP2,2013-04-04 21:48:00,
2013-04-04 17:53:00,54.5,13.0,29.91,ENE,66,9.0,15.0,19,0.00,,,0.00,WUHU216DAVISVP2,2013-04-04 21:53:00,
2013-04-04 17:58:00,54.4,14.1,29.91,NNE,20,8.0,15.0,20,0.00,,,0.00,WUHU216DAVISVP2,2013-04-04 21:58:00,
2013-04-04 18:03:00,54.3,14.0,29.91,NE,45,2.0,14.0,20,0.00,,,0.00,WUHU216DAVISVP2,2013-04-04 22:03:00,
2013-04-04 18:08:00,54.7,14.3,29.91,NE,54,4.0,14.0,20,0.00,,,0.00,WUHU216DAVISVP2,2013-04-04 22:08:00,
2013-04-04 18:13:00,54.9,14.5,29.91,NE,51,9.0,12.0,20,0.00,,,0.00,WUHU216DAVISVP2,2013-04-04 22:13:00,
2013-04-04 18:18:00,55.0,14.6,29.91,ENE,64,8.0,12.0,20,0.00,,,0.00,WUHU216DAVISVP2,2013-04-04 22:18:00,
2013-04-04 18:23:00,54.9,15.6,29.91,East,91,5.0,12.0,21,0.00,,,0.00,WUHU216DAVISVP2,2013-04-04 22:23:00,
2013-04-04 18:28:00,54.8,15.6,29.91,East,85,5.0,12.0,21,0.00,,,0.00,WUHU216DAVISVP2,2013-04-04 22:28:00,
2013-04-04 18:33:00,54.8,14.4,29.91,ENE,64,9.0,12.0,20,0.00,,,0.00,WUHU216DAVISVP2,2013-04-04 22:33:00,
2013-04-04 18:38:00,54.7,15.5,29.91,East,93,7.0,12.0,21,0.00,,,0.00,WUHU216DAVISVP2,2013-04-04 22:38:00,
2013-04-04 18:43:00,54.7,15.5,29.91,ENE,70,3.0,12.0,21,0.00,,,0.00,WUHU216DAVISVP2,2013-04-04 22:43:00,
2013-04-04 18:48:00,54.7,16.5,29.91,North,11,4.0,12.0,22,0.00,,,0.00,WUHU216DAVISVP2,2013-04-04 22:48:00,
2013-04-04 18:53:00,54.6,15.3,29.91,NNW,334,4.0,10.0,21,0.00,,,0.00,WUHU216DAVISVP2,2013-04-04 22:53:00,
2013-04-04 18:58:00,54.4,16.2,29.91,ENE,73,4.0,8.0,22,0.00,,,0.00,WUHU216DAVISVP2,2013-04-04 22:58:00,
2013-04-04 19:03:00,54.1,16.0,29.91,NE,54,6.0,8.0,22,0.00,,,0.00,WUHU216DAVISVP2,2013-04-04 23:03:00,
2013-04-04 19:08:00,53.9,15.8,29.91,NE,47,8.0,11.0,22,0.00,,,0.00,WUHU216DAVISVP2,2013-04-04 23:08:00,
2013-04-04 19:13:00,53.7,15.7,29.91,NNE,25,4.0,11.0,22,0.00,,,0.00,WUHU216DAVISVP2,2013-04-04 23:13:00,
2013-04-04 19:18:00,53.7,15.7,29.91,East,98,4.0,10.0,22,0.00,,,0.00,WUHU216DAVISVP2,2013-04-04 23:18:00,
2013-04-04 19:23:00,53.8,15.7,29.91,ENE,77,1.0,9.0,22,0.00,,,0.00,WUHU216DAVISVP2,2013-04-04 23:23:00,
2013-04-04 19:28:00,53.7,14.6,29.91,East,89,7.0,10.0,21,0.00,,,0.00,WUHU216DAVISVP2,2013-04-04 23:28:00,
2013-04-04 19:33:00,53.4,14.3,29.91,NE,41,2.0,10.0,21,0.00,,,0.00,WUHU216DAVISVP2,2013-04-04 23:33:00,
2013-04-04 19:38:00,53.1,15.1,29.90,ENE,61,3.0,10.0,22,0.00,,,0.00,WUHU216DAVISVP2,2013-04-04 23:38:00,
2013-04-04 19:43:00,52.9,15.0,29.90,ENE,60,2.0,9.0,22,0.00,,,0.00,WUHU216DAVISVP2,2013-04-04 23:43:00,
2013-04-04 19:48:00,52.6,14.7,29.90,East,87,6.0,9.0,22,0.00,,,0.00,WUHU216DAVISVP2,2013-04-04 23:48:00,
2013-04-04 19:53:00,52.2,15.4,29.90,NE,45,1.0,8.0,23,0.00,,,0.00,WUHU216DAVISVP2,2013-04-04 23:53:00,
2013-04-04 19:58:00,51.8,16.0,29.90,ENE,58,2.0,7.0,24,0.00,,,0.00,WUHU216DAVISVP2,2013-04-04 23:58:00,
2013-04-04 20:03:00,51.4,15.7,29.90,NE,51,2.0,6.0,24,0.00,,,0.00,WUHU216DAVISVP2,2013-04-05 00:03:00,
2013-04-04 20:07:00,51.1,15.5,29.90,East,84,2.0,6.0,24,0.00,,,0.00,WUHU216DAVISVP2,2013-04-05 00:07:00,
2013-04-04 20:13:00,50.8,16.1,29.90,ENE,58,1.0,5.0,25,0.00,,,0.00,WUHU216DAVISVP2,2013-04-05 00:13:00,
2013-04-04 20:18:00,50.5,15.8,29.90,NNE,20,2.0,5.0,25,0.00,,,0.00,WUHU216DAVISVP2,2013-04-05 00:18:00,
2013-04-04 20:23:00,50.3,15.6,29.90,NE,51,1.0,5.0,25,0.00,,,0.00,WUHU216DAVISVP2,2013-04-05 00:23:00,
2013-04-04 20:28:00,50.0,16.3,29.90,NNE,25,0.0,5.0,26,0.00,,,0.00,WUHU216DAVISVP2,2013-04-05 00:28:00,
2013-04-04 20:33:00,49.7,16.0,29.90,East,79,1.0,4.0,26,0.00,,,0.00,WUHU216DAVISVP2,2013-04-05 00:33:00,
2013-04-04 20:38:00,49.4,15.8,29.90,NE,50,0.0,4.0,26,0.00,,,0.00,WUHU216DAVISVP2,2013-04-05 00:38:00,
2013-04-04 20:43:00,49.1,16.3,29.90,NE,50,0.0,3.0,27,0.00,,,0.00,WUHU216DAVISVP2,2013-04-05 00:43:00,
2013-04-04 20:48:00,48.8,16.2,29.90,NE,52,1.0,3.0,27,0.00,,,0.00,WUHU216DAVISVP2,2013-04-05 00:48:00,
2013-04-04 20:53:00,48.5,16.7,29.90,NE,50,0.0,2.0,28,0.00,,,0.00,WUHU216DAVISVP2,2013-04-05 00:53:00,
2013-04-04 20:58:00,48.2,16.4,29.90,NE,41,0.0,2.0,28,0.00,,,0.00,WUHU216DAVISVP2,2013-04-05 00:58:00,
2013-04-04 21:03:00,47.9,17.1,29.91,NE,41,0.0,1.0,29,0.00,,,0.00,WUHU216DAVISVP2,2013-04-05 01:03:00,
2013-04-04 21:08:00,47.6,16.9,29.91,NE,41,0.0,0.0,29,0.00,,,0.00,WUHU216DAVISVP2,2013-04-05 01:08:00,
2013-04-04 21:13:00,47.4,16.5,29.91,NE,41,0.0,0.0,29,0.00,,,0.00,WUHU216DAVISVP2,2013-04-05 01:13:00,
2013-04-04 21:18:00,47.3,16.4,29.91,NE,46,0.0,1.0,29,0.00,,,0.00,WUHU216DAVISVP2,2013-04-05 01:18:00,
2013-04-04 21:23:00,47.1,16.2,29.91,NE,45,0.0,1.0,29,0.00,,,0.00,WUHU216DAVISVP2,2013-04-05 01:23:00,
2013-04-04 21:28:00,46.8,16.8,29.91,NNE,31,0.0,1.0,30,0.00,,,0.00,WUHU216DAVISVP2,2013-04-05 01:28:00,
2013-04-04 21:33:00,46.5,16.5,29.90,NE,45,0.0,1.0,30,0.00,,,0.00,WUHU216DAVISVP2,2013-04-05 01:33:00,
2013-04-04 21:38:00,46.3,16.3,29.90,NE,44,0.0,2.0,30,0.00,,,0.00,WUHU216DAVISVP2,2013-04-05 01:38:00,
2013-04-04 21:43:00,46.2,16.2,29.90,NE,53,1.0,2.0,30,0.00,,,0.00,WUHU216DAVISVP2,2013-04-05 01:43:00,
2013-04-04 21:48:00,46.2,16.2,29.91,ENE,71,0.0,2.0,30,0.00,,,0.00,WUHU216DAVISVP2,2013-04-05 01:48:00,
2013-04-04 21:53:00,46.2,16.2,29.91,ENE,72,0.0,2.0,30,0.00,,,0.00,WUHU216DAVISVP2,2013-04-05 01:53:00,
2013-04-04 21:58:00,46.2,16.2,29.91,ENE,64,0.0,2.0,30,0.00,,,0.00,WUHU216DAVISVP2,2013-04-05 01:58:00,
2013-04-04 22:03:00,46.3,16.3,29.91,ENE,64,0.0,2.0,30,0.00,,,0.00,WUHU216DAVISVP2,2013-04-05 02:03:00,
2013-04-04 22:08:00,46.2,16.2,29.91,ENE,64,0.0,2.0,30,0.00,,,0.00,WUHU216DAVISVP2,2013-04-05 02:08:00,
2013-04-04 22:13:00,46.2,16.2,29.91,ENE,72,0.0,1.0,30,0.00,,,0.00,WUHU216DAVISVP2,2013-04-05 02:13:00,
2013-04-04 22:18:00,46.1,16.3,29.91,ENE,66,0.0,2.0,30,0.00,,,0.00,WUHU216DAVISVP2,2013-04-05 02:18:00,
2013-04-04 22:23:00,46.0,16.1,29.91,ENE,68,1.0,2.0,30,0.00,,,0.00,WUHU216DAVISVP2,2013-04-05 02:23:00,
2013-04-04 22:28:00,45.9,16.0,29.91,East,85,2.0,3.0,30,0.00,,,0.00,WUHU216DAVISVP2,2013-04-05 02:28:00,
2013-04-04 22:33:00,45.9,16.9,29.91,East,92,2.0,3.0,31,0.00,,,0.00,WUHU216DAVISVP2,2013-04-05 02:33:00,
2013-04-04 22:38:00,45.6,16.7,29.91,East,93,2.0,3.0,31,0.00,,,0.00,WUHU216DAVISVP2,2013-04-05 02:38:00,
2013-04-04 22:43:00,45.7,17.5,29.91,East,84,2.0,6.0,32,0.00,,,0.00,WUHU216DAVISVP2,2013-04-05 02:43:00,
2013-04-04 22:48:00,45.9,16.7,29.91,East,85,3.0,6.0,31,0.00,,,0.00,WUHU216DAVISVP2,2013-04-05 02:48:00,
2013-04-04 22:53:00,45.9,17.4,29.91,East,79,2.0,5.0,32,0.00,,,0.00,WUHU216DAVISVP2,2013-04-05 02:53:00,
2013-04-04 22:58:00,45.7,17.3,29.91,East,93,1.0,4.0,32,0.00,,,0.00,WUHU216DAVISVP2,2013-04-05 02:58:00,
2013-04-04 23:03:00,45.9,17.4,29.91,East,87,1.0,4.0,32,0.00,,,0.00,WUHU216DAVISVP2,2013-04-05 03:03:00,
2013-04-04 23:08:00,45.8,17.6,29.91,East,80,2.0,4.0,32,0.00,,,0.00,WUHU216DAVISVP2,2013-04-05 03:08:00,
2013-04-04 23:13:00,45.8,17.4,29.90,East,82,2.0,4.0,32,0.00,,,0.00,WUHU216DAVISVP2,2013-04-05 03:13:00,
2013-04-04 23:18:00,45.7,17.3,29.90,East,84,2.0,4.0,32,0.00,,,0.00,WUHU216DAVISVP2,2013-04-05 03:18:00,
2013-04-04 23:23:00,45.7,18.0,29.90,ENE,75,1.0,4.0,33,0.00,,,0.00,WUHU216DAVISVP2,2013-04-05 03:23:00,
2013-04-04 23:28:00,45.5,17.8,29.90,East,79,2.0,3.0,33,0.00,,,0.00,WUHU216DAVISVP2,2013-04-05 03:28:00,
2013-04-04 23:33:00,45.5,17.8,29.90,ENE,76,1.0,3.0,33,0.00,,,0.00,WUHU216DAVISVP2,2013-04-05 03:33:00,
2013-04-04 23:38:00,45.5,17.8,29.90,ESE,116,1.0,3.0,33,0.00,,,0.00,WUHU216DAVISVP2,2013-04-05 03:38:00,
2013-04-04 23:43:00,45.4,18.4,29.90,ESE,114,0.0,2.0,34,0.00,,,0.00,WUHU216DAVISVP2,2013-04-05 03:43:00,
2013-04-04 23:48:00,45.3,18.3,29.89,ESE,103,1.0,2.0,34,0.00,,,0.00,WUHU216DAVISVP2,2013-04-05 03:48:00,
2013-04-04 23:53:00,45.3,18.3,29.90,ENE,72,1.0,2.0,34,0.00,,,0.00,WUHU216DAVISVP2,2013-04-05 03:53:00,
2013-04-04 23:58:00,45.3,18.3,29.89,ENE,73,0.0,2.0,34,0.00,,,0.00,WUHU216DAVISVP2,2013-04-05 03:58:00,